DELTA 1 DEB, 28979

Orbit data source: Space-Track

DELTA 1 DEB, 28979 is space debris in LEO originally from a launch on Thu, 29 Jul 1976 UTC launched from the Air Force Western Test Range (AFWTR). Debris objects in space refer to the collection of defunct objects orbiting the Earth. Examples of debris include non-operational satellites, rocket bodies, and fragments generated from explosions, collisions, or faulty payload assembly.

Loading next visibility...
Identifier
28979, 1976-077FU
Orbit
LEO
Country
Flag of USUS
Related business
Manufacturer
Unknown
Mission
Spacecraft
Bus & Motor
Unknown
Mass
Unknown
Launch date (UTC)
1976-07-29 (50 years ago)
Launch vehicle
Unknown
Launch site
Air Force Western Test Range (AFWTR)
Object type
Payload
Rocket body
Debris
Shape & HBR
Unknown shape, 1.1 m
Radar Cross Section
Small (<0.1 m²)

Expand to show TLE details & history
Last TLE update: 22 hours ago

TLE from 22 hours ago
0 DELTA 1 DEB
1 28979U 76077FU  26118.28992741 -.00000462  00000-0 -98318-2 0  9997
2 28979 102.0246 250.9345 0794167  18.4158 344.3927 10.95157003877983
Epoch: 2026-04-28T06:57Z
TLE epoch observation values (Epoch: 2026-04-28T06:57:29.728Z)
Latitude
0.00007°
Longitude
-69.70675°
Altitude
1,538.844 km
Speed
7.362 km/s
True Right ascension
16h 43m 44s
True Declination
0° 00' 00"
Sunlit
Object was in full shadow at epoch
Visualization orbit readout
Latitude
Unknown
Longitude
Unknown
Altitude
Unknown
Speed
Unknown
Apparent Right ascension
Unknown
Apparent Declination
Unknown
Sunlit
N/A
Visualization observer readout
Local Sidereal Time
12:07:06
Azimuth
Unknown
Elevation
Unknown
Doppler factor
Unknown
Orbital elements
Apogee altitude
2,865.138 km
Perigee altitude
1,505.014 km
Semi-major axis
8,563.213 km
Eccentricity
0.07942
Inclination
102.0246°
RAAN
250.9345°
Arg. of periapsis
18.4158°
True anomaly
341.6877°
Mean anomaly
344.3927°
Eccentric anomaly
343.06746°
Mean motion
2.73898 °/min
Orbital period
131.44 mins
BSTAR
-0.0098318
Loading maneuver chart data...
Computing Atmospheric mass density...
Loading historical data...
Loading historical data...
Loading historical data...
Loading historical data...
Loading historical data...
Loading historical data...
Loading historical data...

Documentation

Showing up to 5 results
|